Location: Grambois
(43.7619°N, 5.5873°E)
Time: 09:20:03
(UTC+00:00)

BREEZE-M DEB (TANK) - Pass Details

Date: 09 October 2020
Orbit: 333 x 12040 km, 49.7° (Epoch: 22 October)

Event Time Altitude Azimuth Distance (km) Brightness Sun altitude
Rises 01:45:27 0° 182° (S) 13,260 8.8 -41.6°
Reaches altitude 10° 01:56:39 10° 178° (S) 13,577 8.8 -40.0°
Maximum altitude 03:24:29 56° 117° (ESE) 11,257 8.8 -25.9°
Drops below altitude 10° 04:08:34 10° 57° (ENE) 8,444 9.1 -18.2°
Sets 04:12:59 0° 54° (NE) 8,560 9.3 -17.4°
